Weather History for Beckley, WV

Change the Weather History Date:

Tuesday, February 4, 2014

  Actual Average Record
Temperature  
Mean Temperature 33 °F 32 °F  
Max Temperature 38 °F 41 °F 70 °F (1927)
Min Temperature 27 °F 24 °F -10 °F (1970)
Degree Days  
Heating Degree Days 32 33  
Month to date heating degree days 108 132  
Since 1 July heating degree days 3387 3276  
Cooling Degree Days 0 0  
Month to date cooling degree days 0 0  
Year to date cooling degree days 0 0  
Moisture  
Dew Point 30 °F    
Average Humidity 84    
Maximum Humidity 92    
Minimum Humidity 76    
Precipitation  
Precipitation 0.03 in 0.09 in 1.19 in (1975)
Month to date precipitation 1.24 0.38  
Year to date precipitation 3.18 3.19  
Snow  
Snow 0.00 in - - ()
Month to date snowfall T  
Since 1 September snowfall 34.9  
Snow Depth T in    
Sea Level Pressure  
Sea Level Pressure 30.15 in    
Wind  
Wind Speed 10 mph (SE)    
Max Wind Speed 24 mph    
Max Gust Speed 35 mph    
Visibility 8 miles    
Events Fog , Rain    
T = Trace of Precipitation, MM = Missing Value Source: NWS Daily Summary

Daily Weather History Graph

Daily Weather History Graph

Search for Another Location

Airport:

Trip Planner

Search our weather history database for the weather conditions in past years. The results will help you decide how hot, cold, wet, or windy it might be!

Date:

Astronomy

Feb. 04, 2014 Rise Set
Actual Time 7:25 AM EST 5:51 PM EST
Civil Twilight 6:58 AM EST 6:18 PM EST
Nautical Twilight 6:27 AM EST 6:50 PM EST
Astronomical Twilight 5:56 AM EST 7:20 PM EST
Moon 10:09 AM EST (2/4) 11:36 PM EST (2/4)
Length of Visible Light 11h 20m
Length of Day
10h 25m
Waxing Crescent, 29% of the Moon is Illuminated
Feb 4
Waxing Crescent
Feb 6
First Quarter
Feb 14
Full
Feb 22
Last Quarter
Mar 1
New

Hourly Weather History & Observations

Time (EST) Temp. Windchill Dew Point Humidity Pressure Visibility Wind Dir Wind Speed Gust Speed Precip Events Conditions
12:26 AM 27.0 °F 21.6 °F 25.0 °F 92% 30.21 in 0.2 mi NE 4.6 mph - N/A Fog Light Freezing Fog
12:38 AM 27.0 °F 20.5 °F 25.0 °F 92% 30.20 in 0.5 mi ENE 5.8 mph - N/A Fog Light Freezing Fog
12:51 AM 27.0 °F 19.5 °F 25.0 °F 92% 30.31 in 0.8 mi East 6.9 mph - N/A   Overcast
12:59 AM 27.0 °F 21.6 °F 25.0 °F 92% 30.21 in 1.2 mi ENE 4.6 mph - N/A   Overcast
1:20 AM 27.0 °F 19.5 °F 25.0 °F 92% 30.21 in 2.5 mi SE 6.9 mph - N/A   Overcast
1:51 AM 27.0 °F 20.5 °F 25.0 °F 92% 30.30 in 2.5 mi East 5.8 mph - N/A   Overcast
1:58 AM 28.0 °F 21.7 °F 25.0 °F 88% 30.20 in 3.0 mi East 5.8 mph - N/A   Overcast
2:51 AM 28.0 °F 24.2 °F 26.1 °F 92% 30.30 in 4.0 mi ESE 3.5 mph - N/A   Overcast
3:51 AM 28.9 °F 25.2 °F 27.0 °F 92% 30.29 in 4.0 mi East 3.5 mph - N/A   Overcast
4:20 AM 28.9 °F - 27.0 °F 92% 30.20 in 6.0 mi Calm Calm - N/A   Overcast
4:51 AM 30.0 °F 23.2 °F 27.0 °F 88% 30.28 in 7.0 mi ESE 6.9 mph - N/A   Overcast
5:42 AM 30.9 °F 23.5 °F 28.0 °F 89% 30.20 in 6.0 mi ESE 8.1 mph - N/A   Overcast
5:51 AM 30.9 °F 23.5 °F 28.9 °F 92% 30.29 in 6.0 mi ESE 8.1 mph - N/A   Overcast
6:51 AM 32.0 °F 24.8 °F 28.9 °F 88% 30.30 in 9.0 mi SE 8.1 mph 18.4 mph N/A   Overcast
7:12 AM 32.0 °F 23.0 °F 28.9 °F 88% 30.20 in 9.0 mi SE 11.5 mph 16.1 mph N/A   Overcast
7:51 AM 32.0 °F 23.6 °F 30.0 °F 92% 30.31 in 8.0 mi SSE 10.4 mph 17.3 mph N/A   Overcast
8:13 AM 32.0 °F 21.6 °F 30.0 °F 92% 30.21 in 7.0 mi SE 15.0 mph 20.7 mph N/A   Overcast
8:47 AM 32.0 °F 23.6 °F 30.2 °F 93% 30.21 in 10.0 mi SSE 10.4 mph 17.3 mph N/A   Overcast
8:51 AM 32.0 °F 24.2 °F 30.0 °F 92% 30.31 in 10.0 mi SE 9.2 mph 16.1 mph N/A   Overcast
9:51 AM 33.1 °F 23.9 °F 30.9 °F 92% 30.33 in 10.0 mi SSE 12.7 mph 18.4 mph N/A   Overcast
10:51 AM 34.0 °F 25.5 °F 30.9 °F 89% 30.32 in 10.0 mi SE 11.5 mph - N/A   Overcast
11:51 AM 35.1 °F 27.4 °F 32.0 °F 89% 30.30 in 10.0 mi SE 10.4 mph 18.4 mph N/A   Overcast
12:51 PM 36.0 °F 28.0 °F 32.0 °F 86% 30.24 in 10.0 mi ESE 11.5 mph 18.4 mph N/A   Overcast
1:51 PM 37.0 °F 30.4 °F 32.0 °F 82% 30.19 in 10.0 mi ESE 9.2 mph - N/A   Overcast
2:30 PM 36.0 °F 29.0 °F 30.9 °F 82% 30.08 in 10.0 mi SE 9.2 mph 19.6 mph N/A   Overcast
2:51 PM 37.0 °F 31.0 °F 32.0 °F 82% 30.16 in 10.0 mi SE 8.1 mph - N/A   Mostly Cloudy
3:05 PM 37.0 °F 31.0 °F 32.0 °F 82% 30.08 in 10.0 mi ESE 8.1 mph 17.3 mph N/A   Scattered Clouds
3:51 PM 37.0 °F 29.8 °F 32.0 °F 82% 30.17 in 10.0 mi SE 10.4 mph - N/A   Scattered Clouds
4:51 PM 37.0 °F 30.4 °F 30.9 °F 79% 30.14 in 10.0 mi ESE 9.2 mph - N/A   Overcast
5:51 PM 37.0 °F 30.4 °F 32.0 °F 82% 30.14 in 10.0 mi SE 9.2 mph - N/A   Overcast
6:51 PM 37.0 °F 29.8 °F 32.0 °F 82% 30.09 in 10.0 mi SE 10.4 mph - N/A   Overcast
7:51 PM 37.0 °F 28.5 °F 32.0 °F 82% 30.06 in 10.0 mi SE 13.8 mph 24.2 mph N/A   Overcast
8:09 PM 37.0 °F 27.7 °F 32.0 °F 82% 29.98 in 10.0 mi SE 16.1 mph 21.9 mph N/A   Overcast
8:39 PM 36.0 °F 29.0 °F 32.0 °F 86% 29.98 in 10.0 mi SE 9.2 mph - 0.00 in   Overcast
8:51 PM 36.0 °F 27.5 °F 32.0 °F 86% 30.04 in 10.0 mi SE 12.7 mph 21.9 mph 0.00 in   Overcast
9:51 PM 35.1 °F 24.8 °F 32.0 °F 89% 30.01 in 10.0 mi SE 17.3 mph 31.1 mph 0.01 in   Overcast
10:51 PM 35.1 °F 23.5 °F 32.0 °F 89% 29.97 in 10.0 mi SE 21.9 mph 28.8 mph 0.02 in Rain Light Rain
10:59 PM 35.1 °F 24.8 °F 30.9 °F 85% 29.91 in 10.0 mi SSE 17.3 mph 32.2 mph 0.00 in   Overcast
11:07 PM 35.1 °F 23.3 °F 30.9 °F 85% 29.90 in 10.0 mi SSE 23.0 mph 35.7 mph 0.00 in   Overcast
11:16 PM 35.1 °F 23.8 °F 32.0 °F 89% 29.91 in 10.0 mi SSE 20.7 mph 34.5 mph 0.00 in   Mostly Cloudy
11:23 PM 35.1 °F 24.5 °F 30.9 °F 85% 29.90 in 10.0 mi SSE 18.4 mph 31.1 mph 0.00 in   Mostly Cloudy
11:31 PM 35.1 °F 25.2 °F 30.9 °F 85% 29.90 in 10.0 mi SSE 16.1 mph 27.6 mph 0.00 in   Mostly Cloudy
11:38 PM 35.1 °F 24.8 °F 32.0 °F 89% 29.89 in 10.0 mi SSE 17.3 mph 28.8 mph 0.00 in   Mostly Cloudy
11:51 PM 35.1 °F 25.2 °F 32.0 °F 89% 29.96 in 10.0 mi SSE 16.1 mph 35.7 mph 0.00 in   Overcast